Snowfall_Accumulation
0.0 0.0 0.0 0.0 0.0 0.0 0.0 0.0 0.0 0.0 0.0 0.0 0.0 0.0 0.0 0.0 0.0 0.0 0.0 0.0 0.0 0.0 0.0 0.0 0.0 0.0 0.0 0.0 0.0 0.0 0.0 0.0 0.0 0.0 0.0 0.0 0.0 0.0 0.0 0.0 0.1 0.1 0.1 0.1
0.0 0.0 0.0 0.0 0.0 0.0 0.0 0.0 0.0 0.0 0.0 0.0 0.0 0.0 0.0 0.0 0.0 0.0 0.0 0.0 0.0 0.0 0.0 0.0 0.0 0.0 0.0 0.0 0.0 0.0 0.0 0.0 0.0 0.0 0.0 0.0 0.1 0.1 0.1 0.0 0.1 0.2 0.3 0.4
0.0 0.0 0.0 0.3 0.0 0.0 0.0 0.0 0.0 0.0 0.0 0.0 0.0 0.0 0.0 0.0 0.0 0.0 0.0 0.0 0.0 0.0 0.0 0.0 0.0 0.0 0.0 0.0 0.0 0.0 0.0 0.0 0.0 0.0 0.0 0.1 0.1 0.0 0.1 0.1 0.1 0.2 0.2 0.2
0.4 0.1 7.8 0.0 0.0 0.0 0.0 0.0 0.0 0.0 0.0 0.0 0.0 0.0 0.0 0.0 0.0 0.0 0.0 0.0 0.0 0.0 0.0 0.0 0.0 0.0 0.0 0.0 0.0 0.0 0.0 0.0 0.0 0.0 0.1 0.1 0.1 0.1 0.1 0.1 0.1 0.2 0.2 0.2
4.1 0.5 0.0 0.0 0.0 0.0 0.0 0.0 0.0 0.0 0.0 0.0 0.0 0.0 0.0 0.0 0.0 0.0 0.0 0.0 0.0 0.0 0.0 0.0 0.0 0.0 0.0 0.0 0.0 0.0 0.0 0.0 0.0 0.0 0.1 0.1 0.1 0.1 0.1 0.1 0.1 0.1 0.1 0.0
1.9 3.5 1.9 0.0 0.0 0.0 0.0 0.0 0.0 0.0 0.0 0.0 0.0 0.0 0.0 0.0 0.0 0.0 0.0 0.0 0.0 0.0 0.0 0.1 0.0 0.0 0.0 0.0 0.0 0.0 0.0 0.1 0.0 0.0 0.1 0.1 0.2 0.2 0.1 0.0 0.0 0.0 0.0 0.0
0.3 2.2 0.5 0.0 0.0 0.0 0.1 0.0 0.0 0.0 0.0 0.0 0.0 0.0 0.0 0.0 0.0 0.0 0.0 0.0 0.0 0.0 0.1 0.0 0.0 0.0 0.0 0.0 0.0 0.0 0.0 0.0 0.0 0.0 0.1 0.1 0.0 0.0 0.0 0.0 0.0 0.0 0.0 0.0
0.2 0.6 4.9 0.0 0.0 0.0 0.0 0.0 0.0 0.0 0.0 0.0 0.0 0.0 0.0 0.0 0.0 0.0 0.0 0.0 0.0 0.1 0.0 0.0 0.0 0.0 0.0 0.1 0.1 0.0 0.0 0.1 0.1 0.1 0.1 0.0 0.0 0.0 0.0 0.0 0.0 0.0 0.0 0.1
0.1 0.1 0.0 0.0 0.0 0.0 0.0 0.0 0.0 0.0 0.0 0.0 0.0 0.0 0.0 0.0 0.0 0.0 0.0 0.0 0.0 0.0 0.0 0.0 0.0 0.0 0.0 0.2 0.1 0.1 0.1 1.1 0.5 0.1 0.0 0.0 0.0 0.0 0.1 0.0 0.1 0.0 0.2 0.3
0.0 0.0 0.0 0.0 0.0 0.0 0.0 0.0 0.0 0.0 0.0 0.0 0.0 0.0 0.0 0.0 0.0 0.0 0.0 0.1 0.0 0.0 0.0 0.1 0.0 0.1 0.3 1.7 1.8 2.0 2.1 0.7 0.1 0.1 0.0 0.0 0.1 0.1 0.2 0.3 0.4 0.5 0.6 0.8
0.0 0.0 0.0 0.0 0.0 0.0 0.0 0.0 0.0 0.0 0.0 0.0 0.0 0.0 0.0 0.0 0.0 0.0 0.0 0.0 0.0 0.0 0.1 0.6 0.7 1.2 0.9 1.0 0.3 0.2 0.1 0.0 0.0 0.1 0.0 0.0 0.1 0.5 0.5 0.3 0.6 0.9 1.1 0.9
0.4 0.0 0.0 0.0 0.0 0.0 0.0 0.0 0.0 0.0 0.0 0.0 0.0 0.0 0.0 0.0 0.0 0.0 0.1 0.0 0.0 0.1 0.7 2.2 1.2 1.5 1.1 0.2 0.0 0.0 0.0 0.2 0.2 0.1 0.1 0.1 0.2 0.4 nan nan nan nan nan 1.0
0.6 0.0 0.0 0.0 0.0 0.0 0.0 0.0 0.0 0.0 0.0 0.0 0.0 0.0 0.0 0.0 0.1 nan 0.1 0.1 1.0 2.2 2.4 2.3 1.3 1.0 0.3 0.0 0.0 0.1 0.0 0.0 0.2 0.1 0.1 0.2 0.3 0.4 1.1 1.2 nan nan nan nan
0.0 0.0 0.2 0.0 0.2 0.0 0.0 0.0 0.0 0.0 0.0 0.0 0.0 0.0 0.0 0.1 0.2 0.2 1.2 1.1 2.2 2.7 3.6 2.0 1.1 0.2 0.1 0.1 0.1 0.1 0.0 0.0 0.3 0.4 0.5 0.8 0.9 1.0 1.0 1.7 2.9 1.7 nan nan
0.0 0.0 0.0 0.0 0.0 0.0 0.0 0.0 0.0 0.0 0.0 0.1 0.1 0.2 0.2 1.9 2.1 3.6 4.8 4.8 4.0 4.3 4.7 2.8 0.5 0.2 0.1 0.0 0.0 0.0 0.1 0.2 0.2 0.2 0.3 0.2 0.3 0.4 0.4 0.4 0.5 0.5 0.4 0.2
0.0 0.0 0.0 0.2 0.1 0.0 0.0 0.0 0.0 0.2 0.3 0.4 0.2 1.1 1.9 1.3 3.7 5.4 4.8 3.9 1.4 2.4 1.5 2.7 0.5 0.2 0.1 0.0 0.0 0.0 0.1 0.0 0.1 0.2 0.3 0.3 0.3 0.4 0.4 0.4 0.4 0.3 0.4 0.5
1.4 0.7 0.1 0.1 0.1 0.0 0.0 0.0 0.0 0.1 0.3 0.6 2.2 1.1 3.7 5.5 4.4 4.0 4.9 4.3 1.6 0.8 0.6 0.4 2.0 1.1 0.1 0.0 0.0 0.2 0.1 0.2 0.0 0.2 0.2 0.3 0.4 0.5 0.4 0.6 0.7 0.6 0.7 1.1
0.1 0.4 0.1 0.0 0.0 0.0 0.1 0.1 0.1 0.5 1.7 1.5 2.3 4.8 7.2 5.7 4.4 6.3 5.6 1.3 2.2 3.5 0.3 0.3 0.5 1.0 0.1 0.0 0.0 0.1 0.2 0.2 0.2 0.3 0.2 0.6 0.4 0.3 0.5 0.6 0.6 0.8 0.9 0.8
0.2 2.0 0.5 0.0 0.0 0.1 0.3 1.5 1.7 2.0 4.0 4.5 6.0 8.6 7.5 7.9 5.5 6.2 3.2 5.7 5.9 0.8 1.5 0.1 0.0 0.0 0.0 0.0 0.0 0.1 0.2 0.3 0.3 0.3 0.3 2.8 1.0 0.5 1.0 1.3 1.0 1.3 1.0 1.5
1.1 1.8 1.8 2.6 2.4 1.7 4.4 3.9 4.1 6.4 6.5 5.3 7.9 8.6 7.6 10.9 7.9 7.1 3.5 1.6 0.2 0.6 0.0 0.0 0.0 0.0 0.0 0.0 0.0 0.1 0.2 0.4 0.4 0.9 1.7 0.9 2.3 3.9 1.8 4.4 1.9 2.4 4.7 3.4
2.5 2.3 3.7 3.8 7.6 8.2 8.4 7.7 7.0 7.3 10.6 8.8 7.7 10.7 9.5 6.1 5.7 6.4 1.2 0.5 0.0 0.0 0.0 0.0 0.0 0.1 0.0 0.0 0.0 0.2 0.6 1.5 1.9 1.3 1.8 4.9 6.7 4.2 4.4 4.8 4.6 5.9 7.0 5.3
0.4 1.5 3.8 3.2 1.5 4.3 4.9 2.3 0.8 5.5 5.7 8.3 9.6 9.7 7.4 2.0 3.6 2.7 4.1 0.3 0.3 0.0 0.2 0.2 0.1 0.5 0.7 1.8 0.2 1.3 0.6 0.8 1.6 1.9 2.7 4.9 5.4 9.3 9.6 7.3 8.0 8.4 8.7 8.8
0.1 0.0 0.2 0.9 0.7 0.3 0.1 0.1 4.5 2.5 6.6 6.2 7.0 2.3 0.4 0.3 0.2 0.5 0.9 0.0 0.1 1.1 0.1 0.4 2.3 2.6 2.9 2.4 2.0 2.9 3.7 4.4 4.6 4.6 5.1 8.8 8.7 15.0 8.0 7.8 8.8 9.9 15.3 11.2
0.0 0.0 0.0 0.0 0.0 0.0 0.0 0.0 0.0 0.0 4.8 2.0 3.8 5.9 0.0 1.1 1.4 0.2 0.2 2.4 2.6 7.3 5.1 2.0 4.5 3.9 4.2 5.0 5.6 7.1 6.2 7.1 8.2 10.0 5.0 7.7 13.9 11.5 9.2 14.8 10.5 12.4 14.8 13.3
0.0 0.0 0.0 0.0 0.0 0.2 0.0 0.0 0.0 0.0 0.0 0.1 0.0 0.0 0.0 0.2 1.1 0.7 1.1 1.6 4.3 2.3 2.8 5.1 4.4 5.3 8.8 9.1 8.7 10.0 10.0 8.4 9.5 11.1 8.1 12.2 12.1 18.7 15.8 14.0 18.7 17.7 19.3 17.4
0.0 0.2 0.1 0.0 0.1 0.1 0.1 0.1 0.2 0.3 0.2 1.0 0.7 3.9 1.9 1.0 0.9 1.0 2.1 3.9 1.8 4.8 2.9 10.2 15.7 14.5 11.6 8.1 9.3 10.4 7.4 5.4 8.6 9.1 10.7 10.9 11.5 9.6 12.8 12.7 17.7 21.5 26.4 29.2
0.2 0.0 0.1 0.1 0.1 0.1 0.1 0.2 0.3 0.5 0.9 1.4 2.6 2.4 1.6 3.0 4.6 3.7 6.0 7.6 7.7 10.5 10.6 13.1 12.4 9.5 7.0 10.8 9.6 8.9 8.7 8.7 9.5 7.6 14.0 15.1 15.7 20.5 21.3 21.3 24.7 27.3 25.9 24.2
Water_Equivalent
0.00 0.00 0.00 0.00 0.00 0.00 0.00 0.00 0.00 0.00 0.00 0.00 0.00 0.00 0.00 0.00 0.00 0.00 0.00 0.00 0.00 0.00 0.00 0.00 0.00 0.00 0.00 0.00 0.00 0.00 0.00 0.00 0.00 0.00 0.00 0.00 0.00 0.01 0.01 0.01 0.01 0.01 0.02 0.04
0.00 0.00 0.00 0.00 0.00 0.00 0.00 0.00 0.00 0.00 0.00 0.00 0.00 0.00 0.00 0.00 0.00 0.00 0.00 0.00 0.00 0.00 0.00 0.00 0.00 0.00 0.00 0.00 0.00 0.00 0.00 0.00 0.00 0.00 0.00 0.00 0.01 0.02 0.01 0.01 0.02 0.04 0.08 0.09
0.00 0.00 0.00 0.09 0.00 0.00 0.00 0.00 0.00 0.00 0.00 0.00 0.00 0.00 0.00 0.00 0.00 0.00 0.00 0.00 0.00 0.00 0.00 0.00 0.00 0.00 0.00 0.00 0.00 0.00 0.00 0.00 0.00 0.00 0.00 0.01 0.01 0.01 0.01 0.02 0.02 0.05 0.05 0.06
0.12 0.02 1.89 0.01 0.00 0.00 0.00 0.00 0.00 0.00 0.00 0.00 0.00 0.00 0.00 0.00 0.00 0.00 0.00 0.00 0.00 0.00 0.00 0.00 0.00 0.00 0.00 0.00 0.00 0.00 0.00 0.00 0.00 0.00 0.01 0.01 0.02 0.03 0.03 0.02 0.03 0.04 0.04 0.05
1.18 0.16 0.00 0.00 0.00 0.00 0.00 0.00 0.00 0.00 0.00 0.00 0.00 0.00 0.00 0.00 0.00 0.00 0.00 0.00 0.00 0.00 0.00 0.00 0.00 0.00 0.00 0.00 0.00 0.00 0.00 0.01 0.01 0.01 0.02 0.02 0.03 0.02 0.02 0.03 0.03 0.03 0.02 0.00
0.75 0.89 0.46 0.00 0.00 0.00 0.00 0.00 0.00 0.00 0.00 0.00 0.00 0.01 0.00 0.00 0.00 0.00 0.00 0.00 0.00 0.00 0.00 0.01 0.00 0.00 0.00 0.00 0.00 0.00 0.01 0.01 0.01 0.01 0.03 0.04 0.05 0.06 0.02 0.01 0.01 0.00 0.00 0.00
0.10 0.57 0.15 0.00 0.00 0.00 0.03 0.00 0.00 0.00 0.00 0.00 0.00 0.00 0.00 0.00 0.00 0.00 0.00 0.00 0.00 0.01 0.01 0.00 0.00 0.00 0.00 0.00 0.01 0.01 0.01 0.01 0.01 0.01 0.01 0.01 0.01 0.00 0.00 0.00 0.00 0.00 0.00 0.00
0.07 0.19 1.12 0.00 0.00 0.00 0.00 0.00 0.00 0.00 0.00 0.00 0.00 0.00 0.00 0.00 0.00 0.00 0.00 0.00 0.00 0.01 0.00 0.00 0.00 0.00 0.00 0.01 0.02 0.01 0.01 0.02 0.03 0.04 0.02 0.01 0.01 0.00 0.00 0.00 0.00 0.00 0.00 0.04
0.02 0.05 0.00 0.00 0.00 0.00 0.00 0.00 0.00 0.00 0.00 0.00 0.00 0.00 0.00 0.00 0.00 0.00 0.00 0.01 0.01 0.00 0.00 0.00 0.00 0.00 0.01 0.05 0.01 0.02 0.03 0.28 0.13 0.03 0.01 0.00 0.00 0.00 0.04 0.00 0.04 0.01 0.09 0.11
0.01 0.00 0.00 0.00 0.00 0.00 0.00 0.00 0.00 0.00 0.00 0.00 0.00 0.00 0.00 0.00 0.00 0.00 0.00 0.01 0.00 0.00 0.00 0.02 0.01 0.03 0.09 0.51 0.56 0.61 0.60 0.19 0.02 0.01 0.00 0.00 0.05 0.06 0.08 0.10 0.15 0.19 0.22 0.30
0.00 0.00 0.00 0.00 0.00 0.00 0.00 0.00 0.00 0.00 0.00 0.00 0.00 0.00 0.00 0.00 0.00 0.00 0.00 0.01 0.00 0.01 0.02 0.15 0.21 0.33 0.27 0.29 0.08 0.05 0.03 0.01 0.01 0.02 0.01 0.02 0.05 0.20 0.19 0.13 0.25 0.35 0.39 0.33
0.09 0.00 0.00 0.00 0.00 0.00 0.00 0.00 0.00 0.00 0.00 0.00 0.00 0.00 0.00 0.00 0.00 0.01 0.02 0.01 0.01 0.04 0.22 0.57 0.31 0.37 0.27 0.05 0.01 0.01 0.00 0.03 0.05 0.04 0.04 0.04 0.08 0.14 nan nan nan nan nan 0.40
0.14 0.00 0.00 0.00 0.00 0.00 0.00 0.00 0.00 0.00 0.00 0.00 0.00 0.00 0.00 0.00 0.03 nan 0.02 0.03 0.32 0.58 0.55 0.52 0.31 0.23 0.08 0.01 0.01 0.01 0.01 0.00 0.06 0.03 0.06 0.09 0.11 0.17 0.43 0.50 nan nan nan nan
0.00 0.00 0.03 0.00 0.05 0.00 0.00 0.00 0.00 0.00 0.00 0.00 0.00 0.01 0.01 0.02 0.04 0.06 0.31 0.27 0.47 0.55 0.72 0.40 0.22 0.05 0.02 0.02 0.01 0.02 0.01 0.00 0.11 0.17 0.20 0.31 0.37 0.39 0.38 0.68 1.02 0.63 nan nan
0.00 0.00 0.01 0.01 0.00 0.00 0.00 0.00 0.00 0.00 0.00 0.02 0.02 0.06 0.05 0.56 0.48 0.66 0.97 1.04 0.79 0.70 0.70 0.47 0.09 0.04 0.01 0.01 0.00 0.00 0.02 0.08 0.07 0.09 0.11 0.09 0.12 0.15 0.16 0.18 0.20 0.20 0.15 0.08
0.00 0.00 0.00 0.04 0.01 0.00 0.00 0.00 0.01 0.04 0.07 0.08 0.04 0.23 0.45 0.36 0.66 0.91 0.83 0.64 0.26 0.38 0.23 0.49 0.09 0.03 0.01 0.00 0.00 0.00 0.04 0.00 0.05 0.09 0.11 0.13 0.12 0.15 0.15 0.15 0.14 0.13 0.13 0.16
0.27 0.13 0.02 0.02 0.01 0.01 0.00 0.00 0.00 0.03 0.07 0.13 0.43 0.22 0.57 0.86 0.65 0.52 0.60 0.53 0.23 0.15 0.10 0.07 0.35 0.28 0.02 0.00 0.00 0.07 0.06 0.07 0.00 0.06 0.09 0.10 0.14 0.16 0.15 0.21 0.23 0.18 0.23 0.37
0.03 0.09 0.02 0.01 0.00 0.01 0.02 0.02 0.03 0.13 0.43 0.35 0.48 0.79 1.13 0.86 0.55 0.74 0.64 0.19 0.34 0.59 0.05 0.07 0.14 0.26 0.04 0.00 0.00 0.04 0.06 0.07 0.07 0.10 0.10 0.20 0.16 0.12 0.18 0.19 0.18 0.24 0.28 0.26
0.05 0.43 0.12 0.00 0.01 0.03 0.09 0.37 0.38 0.44 0.86 0.83 1.02 1.31 1.19 1.34 0.77 0.90 0.61 1.26 1.32 0.15 0.36 0.03 0.00 0.00 0.00 0.00 0.01 0.05 0.08 0.13 0.10 0.10 0.12 0.93 0.33 0.16 0.31 0.42 0.32 0.43 0.29 0.39
0.24 0.41 0.45 0.63 0.62 0.44 0.91 0.80 0.80 1.06 1.06 0.74 1.54 1.72 1.28 2.04 1.68 1.63 0.78 0.34 0.05 0.19 0.00 0.00 0.00 0.00 0.00 0.00 0.01 0.03 0.08 0.16 0.13 0.30 0.52 0.26 0.68 1.13 0.53 1.45 0.52 0.69 1.44 1.00
0.55 0.48 0.70 0.72 1.44 1.73 1.85 1.69 1.38 1.18 1.78 1.82 1.66 2.15 1.95 1.31 1.26 1.51 0.30 0.13 0.00 0.00 0.00 0.00 0.02 0.02 0.00 0.00 0.00 0.09 0.24 0.53 0.63 0.38 0.50 1.45 2.01 1.26 1.20 1.41 1.29 1.72 2.10 1.50
0.08 0.29 0.78 0.64 0.27 0.68 0.80 0.36 0.13 0.97 0.99 1.57 2.14 2.28 1.67 0.41 0.78 0.58 0.97 0.07 0.09 0.00 0.06 0.06 0.04 0.16 0.22 0.60 0.06 0.45 0.20 0.28 0.50 0.56 0.74 1.42 1.46 2.43 2.46 1.95 2.03 2.30 2.38 2.45
0.01 0.00 0.04 0.21 0.18 0.04 0.03 0.02 0.98 0.61 1.41 1.33 1.52 0.55 0.12 0.08 0.07 0.14 0.23 0.00 0.04 0.35 0.05 0.13 0.75 0.87 0.95 0.79 0.69 0.96 1.17 1.30 1.30 1.17 1.28 2.22 2.07 3.55 1.66 1.63 1.98 2.11 3.34 2.24
0.00 0.00 0.00 0.00 0.00 0.00 0.00 0.00 0.00 0.00 1.05 0.43 0.79 1.26 0.01 0.33 0.46 0.05 0.06 0.80 0.85 2.58 1.59 0.57 1.34 1.27 1.40 1.45 1.50 1.91 1.68 1.88 2.04 2.35 1.05 2.48 3.42 2.52 1.90 3.02 1.87 2.37 2.77 2.47
0.00 0.00 0.00 0.00 0.00 0.07 0.00 0.00 0.01 0.01 0.01 0.02 0.00 0.01 0.00 0.07 0.34 0.19 0.34 0.43 1.42 0.72 0.79 1.61 1.45 1.76 2.33 2.38 2.17 2.36 2.32 1.89 2.17 2.59 1.77 2.85 2.68 4.16 3.45 2.64 3.22 3.27 3.29 2.90
0.00 0.07 0.05 0.00 0.03 0.04 0.05 0.05 0.07 0.08 0.07 0.31 0.19 1.15 0.59 0.30 0.25 0.27 0.53 1.20 0.43 1.54 0.66 2.39 3.40 3.29 2.84 1.86 2.15 2.30 1.58 1.13 1.71 1.75 2.08 2.08 2.11 1.68 2.20 2.06 2.88 3.69 4.66 5.09
0.07 0.02 0.05 0.04 0.03 0.05 0.05 0.06 0.10 0.16 0.28 0.45 0.68 0.65 0.45 0.76 1.09 1.03 1.85 1.76 1.74 2.28 2.34 2.98 2.63 2.61 1.44 2.38 1.96 1.67 1.56 1.59 2.73 1.30 2.43 2.84 2.78 3.92 3.69 3.75 4.31 4.76 4.02 3.50
SL_Ratio
nan nan nan nan nan nan nan nan 3.3 nan nan nan nan nan nan nan nan nan nan nan nan nan nan nan nan nan nan nan nan nan nan nan nan nan nan nan 0.0 4.5 4.7 5.0 5.2 4.8 4.0 3.8
nan nan nan nan nan nan nan nan nan nan nan nan nan nan nan nan nan nan nan nan nan nan nan nan nan nan nan nan nan nan nan nan nan nan nan 4.2 3.9 3.7 4.7 3.8 3.6 3.8 4.1 4.4
nan nan nan 3.1 nan nan nan nan nan nan nan nan nan nan nan nan nan nan nan nan nan nan nan nan nan nan nan nan nan nan nan nan nan nan 3.3 4.1 4.3 3.9 4.0 4.1 3.7 4.1 4.3 4.0
3.3 3.0 4.1 3.1 nan nan nan nan nan nan nan nan nan nan nan nan nan nan nan nan nan nan nan nan nan nan nan nan nan nan nan nan nan 2.5 3.9 3.8 3.6 3.8 4.1 4.2 4.4 4.2 4.3 4.3
3.4 3.0 nan nan nan nan nan nan nan nan nan nan nan nan nan nan nan nan nan nan nan nan nan nan 3.3 nan nan nan nan nan nan 4.0 3.8 3.5 4.0 3.7 4.0 4.3 3.9 4.2 4.2 4.0 4.3 5.0
2.6 3.9 4.2 nan nan nan nan 3.3 nan nan nan nan nan 5.2 nan nan nan nan nan nan nan nan nan 4.4 nan nan nan nan nan 3.8 3.6 4.1 3.7 3.4 3.6 3.8 3.6 3.7 4.2 3.7 4.2 3.8 nan nan
3.2 3.8 3.4 nan nan nan 3.7 2.5 nan nan nan nan nan nan nan nan nan nan nan nan nan 4.2 4.1 nan nan nan nan nan 3.8 4.0 4.0 4.2 4.2 4.1 3.8 4.0 3.8 3.6 0.0 nan nan nan nan nan
2.7 3.3 4.4 nan nan nan 5.0 nan nan nan nan nan nan nan nan nan nan nan 3.3 nan 3.6 4.3 nan nan nan nan nan 3.6 3.6 3.7 3.9 3.8 3.8 3.3 2.9 2.8 3.2 5.0 nan nan nan nan nan 2.5
3.3 2.8 nan nan nan nan nan nan nan nan nan nan nan nan nan nan nan nan nan 4.5 4.3 0.0 nan nan nan nan 3.1 3.9 3.7 4.0 3.8 4.0 3.8 3.4 3.3 nan nan nan 3.1 nan 2.5 2.6 2.5 2.5
3.0 nan nan nan nan nan nan nan nan nan nan nan nan nan nan nan 0.0 nan 3.8 4.2 nan nan nan 4.4 3.8 3.3 3.3 3.3 3.3 3.3 3.5 3.6 3.7 4.0 4.5 nan 2.9 2.6 2.5 2.5 2.5 2.5 2.6 2.6
nan nan nan nan nan nan nan nan nan nan nan nan nan nan nan nan nan nan 0.0 4.4 0.0 3.0 3.3 3.9 3.4 3.5 3.5 3.5 3.5 3.8 3.9 4.2 4.2 4.5 3.8 3.1 2.9 2.5 2.5 2.5 2.5 2.6 2.7 2.7
4.1 nan 4.3 nan nan nan nan nan nan nan nan nan nan nan nan nan nan 4.7 4.8 4.1 3.1 2.9 3.0 3.8 3.8 4.0 4.0 3.8 3.4 4.2 4.0 4.6 4.1 3.7 2.8 2.5 2.5 2.5 nan nan nan nan nan 2.5
4.4 nan nan nan nan nan nan nan nan nan nan nan nan nan nan 10.0 4.9 nan 3.7 3.0 3.1 3.8 4.4 4.4 4.2 4.4 4.1 3.6 3.8 4.6 5.2 5.0 3.5 2.7 2.5 2.5 2.5 2.5 2.6 2.5 nan nan nan nan
nan 5.0 5.0 nan 4.9 nan nan nan nan nan nan nan 3.3 3.8 3.9 4.1 4.1 3.6 4.0 4.1 4.7 5.0 5.0 5.1 5.2 5.2 4.7 4.7 4.8 4.9 5.2 nan 2.5 2.5 2.5 2.5 2.5 2.5 2.5 2.5 2.8 2.6 nan nan
nan nan 4.7 4.3 4.0 nan nan nan nan 4.0 5.0 4.6 4.6 3.6 3.6 3.5 4.3 5.4 4.9 4.7 5.1 6.1 6.6 6.0 5.3 5.4 4.4 4.4 5.0 nan 2.5 2.6 2.5 2.5 2.5 2.5 2.5 2.5 2.5 2.5 2.5 2.6 2.6 2.9
nan nan nan 4.6 4.0 nan nan nan 4.3 4.4 4.4 5.1 5.1 4.7 4.2 3.7 5.6 5.9 5.8 6.0 5.5 6.2 6.6 5.6 6.0 5.2 4.9 3.3 nan nan 2.7 nan 2.5 2.5 2.5 2.5 2.5 2.7 2.7 2.7 2.7 2.7 3.0 3.4
5.0 5.1 5.0 4.3 4.4 4.3 3.3 nan 3.8 4.0 4.2 4.4 5.0 5.1 6.5 6.4 6.7 7.8 8.2 8.1 6.9 5.8 6.1 6.2 5.5 3.9 3.8 0.0 nan 2.5 2.5 2.5 nan 2.5 2.5 2.5 2.7 2.9 2.9 3.0 3.0 3.1 3.0 3.0
4.6 5.0 4.5 4.4 nan 4.2 3.7 4.0 3.4 3.4 3.9 4.1 4.9 6.1 6.4 6.6 7.9 8.5 8.8 6.8 6.7 5.8 5.9 4.7 3.9 3.9 3.3 nan nan 2.5 2.5 2.5 2.5 2.5 2.5 2.9 2.8 2.7 2.9 3.1 3.2 3.4 3.2 3.2
4.7 4.6 3.9 5.0 3.2 3.6 3.7 4.0 4.5 4.6 4.7 5.4 5.9 6.5 6.3 5.9 7.1 6.9 5.4 4.5 4.4 5.5 4.1 3.4 nan nan nan nan 2.4 2.5 2.5 2.5 2.6 2.7 2.7 3.0 3.0 3.0 3.3 3.2 3.3 3.1 3.4 3.9
4.6 4.3 3.9 4.2 3.9 3.8 4.9 4.9 5.2 6.0 6.2 7.1 5.1 5.0 5.9 5.3 4.7 4.3 4.5 4.8 3.7 3.3 nan nan nan nan nan nan 2.4 2.7 2.5 2.5 2.8 3.0 3.3 3.6 3.4 3.4 3.4 3.0 3.7 3.5 3.2 3.4
4.5 4.7 5.2 5.3 5.3 4.7 4.6 4.5 5.0 6.1 6.0 4.9 4.7 5.0 4.9 4.7 4.5 4.2 3.9 3.6 10.0 nan nan nan 2.7 2.6 nan nan 2.9 2.5 2.6 2.9 3.1 3.4 3.5 3.4 3.3 3.4 3.7 3.4 3.5 3.4 3.3 3.5
4.9 5.2 4.9 5.0 5.7 6.4 6.1 6.5 6.1 5.7 5.8 5.3 4.5 4.2 4.4 4.7 4.6 4.6 4.2 3.7 3.3 nan 2.8 2.8 2.9 3.0 3.0 3.0 2.7 2.8 2.9 2.9 3.3 3.5 3.6 3.5 3.7 3.8 3.9 3.8 3.9 3.7 3.7 3.6
4.7 5.0 4.9 4.3 4.1 6.0 5.4 4.9 4.6 4.2 4.6 4.7 4.6 4.2 3.4 3.0 2.9 3.2 4.0 nan 2.9 3.0 3.0 3.2 3.0 3.0 3.0 3.0 3.0 3.0 3.2 3.4 3.6 3.9 3.9 4.0 4.2 4.2 4.8 4.8 4.4 4.7 4.6 5.0
nan nan nan nan nan nan nan nan nan 4.3 4.6 4.7 4.8 4.7 3.1 3.3 3.1 3.3 3.5 3.0 3.0 2.8 3.2 3.5 3.4 3.0 3.0 3.4 3.7 3.7 3.7 3.8 4.0 4.3 4.8 3.1 4.1 4.6 4.9 4.9 5.6 5.2 5.3 5.4
3.3 4.0 nan 2.9 2.0 2.9 nan 3.3 3.0 3.0 3.2 3.0 nan 3.2 nan 3.0 3.2 3.7 3.3 3.6 3.1 3.2 3.5 3.1 3.0 3.0 3.8 3.8 4.0 4.2 4.3 4.4 4.4 4.3 4.6 4.3 4.5 4.5 4.6 5.3 5.8 5.4 5.8 6.0
nan 2.7 2.7 nan 2.8 2.7 2.8 2.9 3.1 3.1 3.1 3.4 3.6 3.4 3.2 3.4 3.6 3.9 3.9 3.3 4.2 3.1 4.4 4.3 4.6 4.4 4.1 4.3 4.3 4.5 4.7 4.8 5.0 5.2 5.1 5.2 5.4 5.7 5.8 6.2 6.1 5.8 5.7 5.7
2.8 2.6 2.7 2.8 2.8 2.8 2.9 3.0 3.1 3.2 3.1 3.1 3.8 3.7 3.7 4.0 4.3 3.6 3.3 4.3 4.4 4.6 4.5 4.4 4.7 3.6 4.9 4.5 4.9 5.4 5.6 5.5 3.5 5.9 5.8 5.3 5.6 5.2 5.8 5.7 5.7 5.7 6.4 6.9